Flag for Liechtenstein Weather past 2 weeks in Vaduz, Liechtenstein

Now
49 °F

Cool.


Feels Like: 49 °F
Forecast: 38 / 66 °F
Wind: 1 mph from North

Location: Vaduz

Current Time: Apr 19, 2015 at 11:35:16 PM

Latest Report: Apr 19, 2015 at 10:00 PM


Visibility: N/A

Pressure: 30.09 "Hg

Humidity: 61%

Dew point: 36 °F

Location of VaduzLocation

Historic Weather in Vaduz — Graph

°F

Vaduz temperature yesterday

Maximum temperature yesterday: 54 °F (at 4:00 PM)
Minimum temperature yesterday: 42 °F (at 11:00 PM)
Average temperature yesterday: 48 °F

Past Weeks' High & Low Weather Summary

 TemperatureHumidityPressure
High76 °F (Apr 15, 3:00 PM)96% (Apr 18, 2:00 AM)30.65 "Hg (Apr 18, 2:00 AM)
Low28 °F (Apr 6, 6:00 AM)19% (Apr 15, 3:00 PM)29.88 "Hg (Apr 16, 7:00 PM)
Average52 °F55%30.25 "Hg
* Reported Apr 4 10:00 PM — Apr 19 10:00 PM, Vaduz, Weather by CustomWeather, © 2015

Note: Actual official high and low records may vary slightly from our data, if they occured in-between our weather recording intervals... More about our weather records

Advertising

Vaduz weather history for previous 24 hours

 ConditionsComfort  
Time TempWeatherWind HumidityBarometerVisibility
10:00 PM
Sun, Apr 19
49 °FCool.1 mph61%30.09 "HgN/A
9:00 PM52 °FCool.2 mph51%30.06 "HgN/A
8:00 PM59 °FFog.8 mph32%30.00 "Hg9 mi
7:00 PM61 °FRefreshingly cool.10 mph35%29.98 "HgN/A
6:00 PM62 °FMild.12 mph33%29.96 "HgN/A
5:00 PM63 °FHaze.9 mph31%29.95 "Hg9 mi
4:00 PM62 °FRefreshingly cool.9 mph31%29.96 "HgN/A
3:00 PM62 °FRefreshingly cool.9 mph39%29.97 "HgN/A
2:00 PM59 °FFog.8 mph34%29.99 "Hg9 mi
1:00 PM57 °FRefreshingly cool.8 mph41%30.01 "HgN/A
12:00 PM55 °FCool.7 mph44%30.03 "HgN/A
11:00 AM50 °FSunny.6 mph54%30.05 "Hg9 mi
10:00 AM46 °FCool.3 mph60%30.07 "HgN/A
9:00 AM42 °FQuite cool.3 mph69%30.08 "HgN/A
8:00 AM34 °FChilly.1 mph93%30.12 "HgN/A
7:00 AM34 °FChilly.2 mph93%30.13 "HgN/A
6:00 AM35 °FChilly.1 mph90%30.13 "HgN/A
5:00 AM34 °FChilly.1 mph94%30.14 "HgN/A
4:00 AM35 °FChilly.No wind92%30.16 "HgN/A
3:00 AM36 °FChilly.1 mph90%30.18 "HgN/A
2:00 AM37 °FChilly.2 mph86%30.19 "HgN/A
1:00 AM38 °FChilly.1 mph88%30.19 "HgN/A
12:00 AM39 °FChilly.1 mph84%30.19 "HgN/A
11:00 PM
Sat, Apr 18
42 °FQuite cool.No wind74%30.20 "HgN/A
Weather by CustomWeather, © 2015

See weather overviewHow to use our weather pages